Location: Rosenheim
(47.8408°N, 12.2113°E)
Time: 04:28:45
(UTC+01:00)

ISS - Pass Details

Date: 14 February 2018
Orbit: 403 x 407 km, 51.6° (Epoch: 18 February)

Event Time Altitude Azimuth Distance (km) Brightness Sun altitude
Rises 18:25:28 0° 282° (WNW) 2,320 1.5 -9.5°
Reaches altitude 10° 18:28:39 10° 248° (WSW) 1,455 0.4 -10.0°
Maximum altitude 18:29:51 12° 226° (SW) 1,358 -0.3 -10.2°
Drops below altitude 10° 18:31:04 10° 204° (SSW) 1,452 -0.6 -10.4°
Sets 18:34:14 0° 170° (S) 2,306 0.0 -11.0°
